Location: Voyageurs National Park
(48.5020°N, 92.9292°W)
Time: 21:23:09
(UTC-06:00)

USA 229 - Pass Details

Date: 19 January 2018
Orbit: 1039 x 1174 km, 63.4° (Epoch: 16 February)

Event Time Altitude Azimuth Distance (km) Brightness Sun altitude
Rises 06:51:25 0° 220° (SW) 3,796 6.4 -10.4°
Reaches altitude 10° 06:54:00 10° 221° (SW) 2,855 5.7 -10.0°
Maximum altitude 07:00:46 86° 311° (NW) 1,075 3.7 -9.0°
Drops below altitude 10° 07:07:46 10° 41° (NE) 2,949 6.3 -7.9°
Sets 07:10:29 0° 42° (NE) 3,929 6.9 -7.5°
